Location: Unspecified
(40.7945°N, 111.1337°W)
Time: 15:42:55
(UTC-06:00)

CZ-3 Stage 3 - Pass Details

Date: 30 March 2019
Orbit: 493 x 34698 km, 30.5° (Epoch: 24 April)

Event Time Altitude Azimuth Distance (km) Brightness Sun altitude
Exits shadow 03:52:18 35° 173° (S) 3,749 5.6 -34.8°
Maximum altitude 03:58:17 44° 133° (SE) 4,982 6.5 -34.0°
Drops below altitude 10° 12:37:32 10° 141° (SE) 20,237 10.5 51.3°
Sets 12:55:47 0° 139° (SE) 17,476 9.9 52.3°
